Regional Weather Roundup
Issued by NWS Goodland, KS

Home | Current Version | Previous Version | Graphics & Text | Print | Product List | Glossary On
Versions: 1 2 3 4 5 6 7 8 9 10 11 12 13 14 15 16 17 18 19 20 21 22 23 24 25 26 27 28 29 30 31 32 33 34 35 36 37 38 39 40 41 42 43 44 45 46 47 48 49 50
000
ASUS43 KGLD 301508
RWRGLD

GOODLAND FORECAST AREA HOURLY WEATHER ROUNDUP
NATIONAL WEATHER SERVICE GOODLAND KS
900 AM MDT SAT AUG 30 2014

...OFFICIAL OBSERVATIONS...

CITY           SKY/WX    TMP DP  RH WIND       PRES   REMARKS
GOODLAND KS    SUNNY     69  59  70 W6        30.05F
HILL CITY KS   SUNNY     70  60  70 E9        30.01S
IMPERIAL NEB   SUNNY     67  59  75 SE9       30.03F
MCCOOK NEB     SUNNY     67  60  78 E5        30.02S
AKRON CO       SUNNY     69  51  52 SW9       30.05F
BURLINGTON CO  SUNNY     72  51  47 SW13      30.07S
LIMON CO       SUNNY     72  45  37 SW15G21   30.11F
$$

...UNOFFICIAL OBSERVATIONS...

CITY           SKY/WX    TMP DP  RH WIND       PRES   REMARKS
COLBY KS       SUNNY     70  63  78 CALM      30.04S
GOVE KS          N/A     69  32  25 CALM        N/A
NORTON KS      SUNNY     70  57  64 E8        30.00
SHARON SPRINGS   N/A     70  60  70 SW6         N/A
WAKEENEY KS      N/A     74  55  51 MISG        N/A
KIT CARSON CO    N/A     65  52  62 CALM        N/A
YUMA CO          N/A     66  60  82 CALM        N/A
$$



USA.gov is the U.S. government's official web portal to all federal, state and local government web resources and services.